Hourly Data Report for October 28, 2015

All times are specified in Local Standard Time (LST). Add 1 hour to adjust for Daylight Saving Time where and when it is observed.

SAINT JOHN A
NEW BRUNSWICK

45°18'58.000" N
65°53'24.000" W
108.80 m
8104901
71609
YSJ

Download Data

Hourly Data (October 2015)
Hourly Data Report for October 28, 2015
Temp Definition
°C
Dew Point Temp Definition
°C
Rel Hum Definition
%
Wind Dir Definition
10's deg

Wind Spd Definition
km/h
Visibility Definition
km
Stn Press Definition
kPa
Hmdx Definition


Wind Chill Definition


Weather Definition


TIME
00:00 Legend Double Dagger 2.0 -1.1 80 25 10 24.1 102.01     LegendNANA
01:00 Legend Double Dagger 1.7 -1.0 82 26 8 24.1 102.05     LegendNANA
02:00 Legend Double Dagger -1.7 -2.8 92 36 2 24.1 102.09   -2 Clear
03:00 Legend Double Dagger -3.9 -4.7 94 6 5 24.1 102.11   -6 LegendNANA
04:00 Legend Double Dagger -3.1 -3.8 95 36 3 24.1 102.13   -4 LegendNANA
05:00 Legend Double Dagger -4.4 -5.1 95 36 1 24.1 102.16   -5 Clear
06:00 Legend Double Dagger -4.1 -4.8 95 5 4 24.1 102.20   -6 LegendNANA
07:00 Legend Double Dagger -4.4 -5.1 95 3 3 24.1 102.21   -6 LegendNANA
08:00 Legend Double Dagger -2.7 -3.4 95 36 3 24.1 102.25   -4 Mainly Clear
09:00 Legend Double Dagger 2.3 0.4 87 36 2 24.1 102.25     LegendNANA
10:00 Legend Double Dagger 6.7 -3.0 50 9 4 24.1 102.18     LegendNANA
11:00 Legend Double Dagger 8.4 -2.0 48 10 4 24.1 102.10     Mostly Cloudy
12:00 Legend Double Dagger 8.7 -2.9 44 16 12 24.1 102.04     LegendNANA
13:00 Legend Double Dagger 9.1 -1.0 49 15 8 24.1 101.96     LegendNANA
14:00 Legend Double Dagger 9.3 -0.8 49 14 9 24.1 101.88     Cloudy
15:00 Legend Double Dagger 9.0 0.0 53 19 13 24.1 101.83     LegendNANA
16:00 Legend Double Dagger 7.9 -0.1 57 21 13 24.1 101.83     LegendNANA
17:00 Legend Double Dagger 7.1 0.1 61 22 3 24.1 101.74     Cloudy
18:00 Legend Double Dagger 5.2 1.3 76   0 24.1 101.68     LegendNANA
19:00 Legend Double Dagger 4.7 1.6 80 36 3 24.1 101.60     LegendNANA
20:00 Legend Double Dagger 6.6 1.1 68 13 9 24.1 101.50     Cloudy
21:00 Legend Double Dagger 6.2 1.7 73 16 9 24.1 101.51     Rain
22:00 Legend Double Dagger 5.9 4.1 88 16 14 24.1 101.37     Rain
23:00 Legend Double Dagger 6.1 5.1 93 12 16 16.1 101.22     Rain

Notes on Data Quality.

Legend

  • E = Estimated
  • M = Missing
  • NA = Not Available
  • ‡ = Partner data that is not subject to review by the National Climate Archives
Date modified: